Time,TemperatureF,DewpointF,PressureIn,WindDirection,WindDirectionDegrees,WindSpeedMPH,WindSpeedGustMPH,Humidity,HourlyPrecipIn,Conditions,Clouds,dailyrainin,SoftwareType,DateUTC
2013-10-14 00:00:00,65.1,46.0,30.06,NNE,12,0.0,0.0,50,0.00,,---,0.00,VWS V14.01,2013-10-14 04:00:00,
2013-10-14 00:01:00,65.1,46.0,30.06,NNE,12,0.0,0.0,50,0.00,,---,0.00,VWS V14.01,2013-10-14 04:01:00,
2013-10-14 00:02:00,65.1,46.0,30.06,NNE,12,0.0,0.0,50,0.00,,---,0.00,VWS V14.01,2013-10-14 04:02:00,
2013-10-14 00:07:00,65.1,46.0,30.06,NNE,12,0.0,0.0,50,0.00,,---,0.00,VWS V14.01,2013-10-14 04:07:00,
2013-10-14 00:12:00,64.9,46.4,30.06,NNE,12,0.0,0.0,51,0.00,,---,0.00,VWS V14.01,2013-10-14 04:12:00,
2013-10-14 00:17:00,64.8,46.2,30.03,NNE,12,0.0,0.0,51,0.00,,---,0.00,VWS V14.01,2013-10-14 04:17:00,
2013-10-14 00:22:00,64.6,46.1,30.03,NNE,12,0.0,0.0,51,0.00,,---,0.00,VWS V14.01,2013-10-14 04:22:00,
2013-10-14 00:27:00,64.6,46.6,30.03,NNE,12,0.0,0.0,52,0.00,,---,0.00,VWS V14.01,2013-10-14 04:27:00,
2013-10-14 00:32:00,64.4,46.4,30.03,NNE,12,0.0,0.0,52,0.00,,---,0.00,VWS V14.01,2013-10-14 04:32:00,
2013-10-14 00:37:00,64.2,46.8,30.03,NNE,12,0.0,0.0,53,0.00,,---,0.00,VWS V14.01,2013-10-14 04:37:00,
2013-10-14 00:42:00,64.0,46.6,30.03,NNE,12,0.0,0.0,53,0.00,,---,0.00,VWS V14.01,2013-10-14 04:42:00,
2013-10-14 00:47:00,64.0,46.6,30.03,NNE,12,0.0,0.0,53,0.00,,---,0.00,VWS V14.01,2013-10-14 04:47:00,
2013-10-14 00:52:00,63.9,46.4,30.03,NNE,12,0.0,0.0,53,0.00,,---,0.00,VWS V14.01,2013-10-14 04:52:00,
2013-10-14 00:57:00,63.9,46.4,30.03,NNE,12,0.0,0.0,53,0.00,,---,0.00,VWS V14.01,2013-10-14 04:57:00,
2013-10-14 01:02:00,63.7,46.2,30.03,NNE,12,0.0,0.0,53,0.00,,---,0.00,VWS V14.01,2013-10-14 05:02:00,
2013-10-14 01:07:00,63.5,46.1,30.03,NNE,12,0.0,0.0,53,0.00,,---,0.00,VWS V14.01,2013-10-14 05:07:00,
2013-10-14 01:12:00,63.5,46.6,30.03,NNE,12,0.0,0.0,54,0.00,,---,0.00,VWS V14.01,2013-10-14 05:12:00,
2013-10-14 01:17:00,63.3,46.4,30.03,NNE,12,0.0,0.0,54,0.00,,---,0.00,VWS V14.01,2013-10-14 05:17:00,
2013-10-14 01:22:00,63.1,46.2,30.03,NNE,12,0.0,0.0,54,0.00,,---,0.00,VWS V14.01,2013-10-14 05:22:00,
2013-10-14 01:27:00,63.1,46.2,30.03,NNE,12,0.0,0.0,54,0.00,,---,0.00,VWS V14.01,2013-10-14 05:27:00,
2013-10-14 01:32:00,63.1,46.2,30.03,NNE,12,0.0,0.0,54,0.00,,---,0.00,VWS V14.01,2013-10-14 05:32:00,
2013-10-14 01:37:00,63.0,46.1,30.03,NNE,12,0.0,0.0,54,0.00,,---,0.00,VWS V14.01,2013-10-14 05:37:00,
2013-10-14 01:42:00,63.0,46.1,30.03,NNE,12,0.0,0.0,54,0.00,,---,0.00,VWS V14.01,2013-10-14 05:42:00,
2013-10-14 01:47:00,62.8,45.9,30.03,NNE,12,0.0,0.0,54,0.00,,---,0.00,VWS V14.01,2013-10-14 05:47:00,
2013-10-14 01:52:00,62.8,45.9,30.03,NNE,12,0.0,0.0,54,0.00,,---,0.00,VWS V14.01,2013-10-14 05:52:00,
2013-10-14 01:57:00,62.6,45.7,30.03,NNE,12,0.0,0.0,54,0.00,,---,0.00,VWS V14.01,2013-10-14 05:57:00,
2013-10-14 02:02:00,62.6,45.7,30.03,NNE,12,0.0,0.0,54,0.00,,---,0.00,VWS V14.01,2013-10-14 06:02:00,
2013-10-14 02:07:00,62.6,45.7,30.03,NNE,12,0.0,0.0,54,0.00,,---,0.00,VWS V14.01,2013-10-14 06:07:00,
2013-10-14 02:12:00,62.6,45.7,30.03,NNE,12,0.0,0.0,54,0.00,,---,0.00,VWS V14.01,2013-10-14 06:12:00,
2013-10-14 02:17:00,62.4,46.1,30.03,NNE,12,0.0,0.0,55,0.00,,---,0.00,VWS V14.01,2013-10-14 06:17:00,
2013-10-14 02:22:00,62.4,46.1,30.03,NNE,12,0.0,0.0,55,0.00,,---,0.00,VWS V14.01,2013-10-14 06:22:00,
2013-10-14 02:27:00,62.4,46.1,30.03,NNE,12,0.0,0.0,55,0.00,,---,0.00,VWS V14.01,2013-10-14 06:27:00,
2013-10-14 02:32:00,62.2,45.9,30.03,NNE,12,0.0,0.0,55,0.00,,---,0.00,VWS V14.01,2013-10-14 06:32:00,
2013-10-14 02:37:00,62.2,45.9,30.03,NNE,12,0.0,0.0,55,0.00,,---,0.00,VWS V14.01,2013-10-14 06:37:00,
2013-10-14 02:42:00,62.2,45.9,30.03,NNE,12,0.0,0.0,55,0.00,,---,0.00,VWS V14.01,2013-10-14 06:42:00,
2013-10-14 02:47:00,62.2,45.9,30.03,NNE,12,0.0,0.0,55,0.00,,---,0.00,VWS V14.01,2013-10-14 06:47:00,
2013-10-14 02:52:00,62.2,45.9,30.00,NNE,12,0.0,0.0,55,0.00,,---,0.00,VWS V14.01,2013-10-14 06:52:00,
2013-10-14 02:57:00,62.1,45.7,30.00,NNE,12,0.0,0.0,55,0.00,,---,0.00,VWS V14.01,2013-10-14 06:57:00,
2013-10-14 03:02:00,62.1,46.2,30.00,NNE,12,0.0,0.0,56,0.00,,---,0.00,VWS V14.01,2013-10-14 07:02:00,
2013-10-14 03:07:00,62.1,46.2,30.00,NNE,12,0.0,0.0,56,0.00,,---,0.00,VWS V14.01,2013-10-14 07:07:00,
2013-10-14 03:12:00,62.1,46.2,30.00,NNE,12,0.0,0.0,56,0.00,,---,0.00,VWS V14.01,2013-10-14 07:12:00,
2013-10-14 03:17:00,61.9,46.0,30.00,NNE,12,0.0,0.0,56,0.00,,---,0.00,VWS V14.01,2013-10-14 07:17:00,
2013-10-14 03:22:00,61.9,46.0,30.00,NNE,12,0.0,0.0,56,0.00,,---,0.00,VWS V14.01,2013-10-14 07:22:00,
2013-10-14 03:27:00,61.9,46.0,30.00,NNE,12,0.0,0.0,56,0.00,,---,0.00,VWS V14.01,2013-10-14 07:27:00,
2013-10-14 03:32:00,61.9,46.0,30.00,NNE,12,0.0,0.0,56,0.00,,---,0.00,VWS V14.01,2013-10-14 07:32:00,
2013-10-14 03:37:00,61.9,46.0,30.00,NNE,12,0.0,0.0,56,0.00,,---,0.00,VWS V14.01,2013-10-14 07:37:00,
2013-10-14 03:42:00,61.7,45.9,30.00,NNE,12,0.0,0.0,56,0.00,,---,0.00,VWS V14.01,2013-10-14 07:42:00,
2013-10-14 03:47:00,61.7,45.9,30.00,NNE,12,0.0,0.0,56,0.00,,---,0.00,VWS V14.01,2013-10-14 07:47:00,
2013-10-14 03:52:00,61.7,46.3,30.00,NNE,12,0.0,0.0,57,0.00,,---,0.00,VWS V14.01,2013-10-14 07:52:00,
2013-10-14 03:57:00,61.7,46.3,30.00,NNE,12,0.0,0.0,57,0.00,,---,0.00,VWS V14.01,2013-10-14 07:57:00,
2013-10-14 04:02:00,61.7,46.3,30.00,NNE,12,0.0,0.0,57,0.00,,---,0.00,VWS V14.01,2013-10-14 08:02:00,
2013-10-14 04:07:00,61.7,46.3,30.00,NNE,12,0.0,0.0,57,0.00,,---,0.00,VWS V14.01,2013-10-14 08:07:00,
2013-10-14 04:12:00,61.9,46.5,30.00,NNE,12,0.0,0.0,57,0.00,,---,0.00,VWS V14.01,2013-10-14 08:12:00,
2013-10-14 04:17:00,61.9,46.5,30.00,NNE,14,0.0,0.0,57,0.00,,---,0.00,VWS V14.01,2013-10-14 08:17:00,
2013-10-14 04:22:00,62.1,47.1,30.00,NNE,14,0.0,0.0,58,0.00,,---,0.00,VWS V14.01,2013-10-14 08:22:00,
2013-10-14 04:27:00,62.2,47.3,30.00,NNE,14,0.0,0.0,58,0.00,,---,0.00,VWS V14.01,2013-10-14 08:27:00,
2013-10-14 04:32:00,62.2,47.3,30.00,NNE,14,0.0,0.0,58,0.00,,---,0.00,VWS V14.01,2013-10-14 08:32:00,
2013-10-14 04:37:00,62.2,47.3,30.00,NNE,14,0.0,0.0,58,0.00,,---,0.00,VWS V14.01,2013-10-14 08:37:00,
2013-10-14 04:42:00,62.2,47.3,30.00,NNE,14,0.0,0.0,58,0.00,,---,0.00,VWS V14.01,2013-10-14 08:42:00,
2013-10-14 04:47:00,62.2,47.3,30.00,NNE,14,0.0,0.0,58,0.00,,---,0.00,VWS V14.01,2013-10-14 08:47:00,
2013-10-14 04:52:00,62.2,47.3,30.00,NNE,14,0.0,0.0,58,0.00,,---,0.00,VWS V14.01,2013-10-14 08:52:00,
2013-10-14 04:57:00,62.2,47.3,30.00,NNE,14,0.0,0.0,58,0.00,,---,0.00,VWS V14.01,2013-10-14 08:57:00,
2013-10-14 05:02:00,62.2,47.3,30.00,NNE,14,0.0,0.0,58,0.00,,---,0.00,VWS V14.01,2013-10-14 09:02:00,
2013-10-14 05:07:00,62.4,47.9,30.00,NNE,14,0.0,0.0,59,0.00,,---,0.00,VWS V14.01,2013-10-14 09:07:00,
2013-10-14 05:12:00,62.4,47.9,30.00,NNE,14,0.0,0.0,59,0.00,,---,0.00,VWS V14.01,2013-10-14 09:12:00,
2013-10-14 05:17:00,62.4,47.9,30.00,NNE,14,0.0,0.0,59,0.00,,---,0.00,VWS V14.01,2013-10-14 09:17:00,
2013-10-14 05:22:00,62.4,47.9,30.00,NNE,14,0.0,0.0,59,0.00,,---,0.00,VWS V14.01,2013-10-14 09:22:00,
2013-10-14 05:27:00,62.4,47.9,30.00,NNE,14,0.0,0.0,59,0.00,,---,0.00,VWS V14.01,2013-10-14 09:27:00,
2013-10-14 05:32:00,62.6,48.1,30.00,NNE,14,0.0,0.0,59,0.00,,---,0.00,VWS V14.01,2013-10-14 09:32:00,
2013-10-14 05:37:00,62.4,47.9,30.00,NNE,14,0.0,0.0,59,0.00,,---,0.00,VWS V14.01,2013-10-14 09:37:00,
2013-10-14 05:42:00,62.4,47.9,30.00,NNE,14,0.0,0.0,59,0.00,,---,0.00,VWS V14.01,2013-10-14 09:42:00,
2013-10-14 05:47:00,62.4,47.9,30.00,NNE,14,0.0,0.0,59,0.00,,---,0.00,VWS V14.01,2013-10-14 09:47:00,
2013-10-14 05:52:00,62.4,48.4,30.00,NNE,14,0.0,0.0,60,0.00,,---,0.00,VWS V14.01,2013-10-14 09:52:00,
2013-10-14 05:57:00,62.4,48.4,30.00,NNE,14,0.0,0.0,60,0.00,,---,0.00,VWS V14.01,2013-10-14 09:57:00,
2013-10-14 06:02:00,62.6,48.5,30.00,NNE,14,0.0,0.0,60,0.00,,---,0.00,VWS V14.01,2013-10-14 10:02:00,
2013-10-14 06:07:00,62.6,48.5,30.00,NNE,14,0.0,0.0,60,0.00,,---,0.00,VWS V14.01,2013-10-14 10:07:00,
2013-10-14 06:12:00,62.6,48.5,30.00,NNE,14,0.0,0.0,60,0.00,,---,0.00,VWS V14.01,2013-10-14 10:12:00,
2013-10-14 06:17:00,62.8,48.7,30.00,NNE,14,0.0,0.0,60,0.00,,---,0.00,VWS V14.01,2013-10-14 10:17:00,
2013-10-14 06:22:00,62.6,48.5,30.00,NNE,14,0.0,0.0,60,0.00,,---,0.00,VWS V14.01,2013-10-14 10:22:00,
2013-10-14 06:27:00,62.8,49.2,30.00,NNE,14,0.0,0.0,61,0.00,,---,0.00,VWS V14.01,2013-10-14 10:27:00,
2013-10-14 06:32:00,62.6,49.0,30.00,NNE,14,0.0,0.0,61,0.00,,---,0.00,VWS V14.01,2013-10-14 10:32:00,
2013-10-14 06:37:00,62.6,49.0,30.00,NNE,14,0.0,0.0,61,0.00,,---,0.00,VWS V14.01,2013-10-14 10:37:00,
2013-10-14 06:42:00,62.6,49.0,30.00,NNE,14,0.0,0.0,61,0.00,,---,0.00,VWS V14.01,2013-10-14 10:42:00,
2013-10-14 06:48:00,62.6,49.0,30.00,NNE,14,0.0,0.0,61,0.00,,---,0.00,VWS V14.01,2013-10-14 10:48:00,
2013-10-14 06:53:00,62.6,49.0,30.00,NNE,14,0.0,0.0,61,0.00,,---,0.00,VWS V14.01,2013-10-14 10:53:00,
2013-10-14 06:58:00,62.8,49.2,30.00,NNE,14,0.0,0.0,61,0.00,,---,0.00,VWS V14.01,2013-10-14 10:58:00,
2013-10-14 07:03:00,63.0,49.8,30.00,NNE,14,0.0,0.0,62,0.00,,---,0.00,VWS V14.01,2013-10-14 11:03:00,
2013-10-14 07:08:00,63.1,49.9,30.00,NNE,14,0.0,0.0,62,0.00,,---,0.00,VWS V14.01,2013-10-14 11:08:00,
2013-10-14 07:13:00,63.3,50.5,30.00,NNE,14,0.0,0.0,63,0.00,,---,0.00,VWS V14.01,2013-10-14 11:13:00,
2013-10-14 07:18:00,63.5,50.7,30.00,NNE,14,0.0,0.0,63,0.00,,---,0.00,VWS V14.01,2013-10-14 11:18:00,
2013-10-14 07:23:00,63.5,50.7,30.00,NNE,14,0.0,0.0,63,0.00,,---,0.00,VWS V14.01,2013-10-14 11:23:00,
2013-10-14 07:28:00,63.5,50.7,30.00,NNE,14,0.0,0.0,63,0.00,,---,0.00,VWS V14.01,2013-10-14 11:28:00,
2013-10-14 07:33:00,63.5,50.7,30.00,NNE,14,0.0,0.0,63,0.00,,---,0.00,VWS V14.01,2013-10-14 11:33:00,
2013-10-14 07:38:00,63.5,50.7,30.00,NNE,14,0.0,0.0,63,0.00,,---,0.00,VWS V14.01,2013-10-14 11:38:00,
2013-10-14 07:43:00,63.5,50.7,30.00,NNE,12,0.0,0.0,63,0.00,,---,0.00,VWS V14.01,2013-10-14 11:43:00,
2013-10-14 07:48:00,63.5,50.7,30.00,NNE,12,0.0,0.0,63,0.00,,---,0.00,VWS V14.01,2013-10-14 11:48:00,
2013-10-14 07:53:00,63.5,50.7,30.00,NNE,12,0.0,0.0,63,0.00,,---,0.00,VWS V14.01,2013-10-14 11:53:00,
2013-10-14 07:58:00,63.5,51.1,30.00,NNE,12,0.0,0.0,64,0.00,,---,0.00,VWS V14.01,2013-10-14 11:58:00,
2013-10-14 08:03:00,63.7,51.3,30.00,NW,326,0.0,0.0,64,0.00,,---,0.00,VWS V14.01,2013-10-14 12:03:00,
2013-10-14 08:08:00,63.9,51.5,30.00,NW,326,0.0,0.0,64,0.00,,---,0.00,VWS V14.01,2013-10-14 12:08:00,
2013-10-14 08:13:00,64.2,51.8,30.00,NNE,15,0.0,0.0,64,0.00,,---,0.00,VWS V14.01,2013-10-14 12:13:00,
2013-10-14 08:18:00,64.4,52.0,30.00,North,4,0.0,0.0,64,0.00,,---,0.00,VWS V14.01,2013-10-14 12:18:00,
2013-10-14 08:23:00,64.6,52.1,30.00,North,4,0.0,0.0,64,0.00,,---,0.00,VWS V14.01,2013-10-14 12:23:00,
2013-10-14 08:28:00,64.8,52.3,30.00,NNE,32,0.0,0.0,64,0.00,,---,0.00,VWS V14.01,2013-10-14 12:28:00,
2013-10-14 08:33:00,65.1,53.1,30.00,NE,52,0.0,0.0,65,0.00,,---,0.00,VWS V14.01,2013-10-14 12:33:00,
2013-10-14 08:38:00,65.1,53.1,30.00,NNE,30,0.0,0.0,65,0.00,,---,0.00,VWS V14.01,2013-10-14 12:38:00,
2013-10-14 08:43:00,65.7,53.6,30.00,NNE,22,4.0,4.0,65,0.00,,---,0.00,VWS V14.01,2013-10-14 12:43:00,
2013-10-14 08:48:00,65.8,53.8,30.00,NNE,22,0.0,0.0,65,0.00,,---,0.00,VWS V14.01,2013-10-14 12:48:00,
2013-10-14 08:53:00,66.0,53.9,30.00,NNE,31,0.0,0.0,65,0.00,,---,0.00,VWS V14.01,2013-10-14 12:53:00,
2013-10-14 08:58:00,66.2,54.1,30.00,NNW,343,2.2,2.2,65,0.00,,---,0.00,VWS V14.01,2013-10-14 12:58:00,
2013-10-14 09:03:00,66.4,54.3,30.00,North,7,0.0,0.0,65,0.00,,---,0.00,VWS V14.01,2013-10-14 13:03:00,
2013-10-14 09:08:00,66.7,55.0,30.00,WNW,287,0.0,0.0,66,0.00,,---,0.00,VWS V14.01,2013-10-14 13:08:00,
2013-10-14 09:13:00,66.9,55.2,30.00,West,277,0.0,0.0,66,0.00,,---,0.00,VWS V14.01,2013-10-14 13:13:00,
2013-10-14 09:18:00,67.3,55.5,30.03,WNW,289,0.0,0.0,66,0.00,,---,0.00,VWS V14.01,2013-10-14 13:18:00,
2013-10-14 09:23:00,67.5,56.1,30.03,NNW,341,2.2,2.2,67,0.00,,---,0.00,VWS V14.01,2013-10-14 13:23:00,
2013-10-14 09:28:00,67.8,56.5,30.03,NE,55,0.0,0.0,67,0.00,,---,0.00,VWS V14.01,2013-10-14 13:28:00,
2013-10-14 09:33:00,68.4,57.0,30.03,North,0,5.8,5.8,67,0.00,,---,0.00,VWS V14.01,2013-10-14 13:33:00,
2013-10-14 09:38:00,68.7,57.3,30.03,NNE,20,0.0,5.4,67,0.00,,---,0.00,VWS V14.01,2013-10-14 13:38:00,
2013-10-14 09:43:00,69.3,57.8,30.03,NE,36,0.0,0.0,67,0.00,,---,0.00,VWS V14.01,2013-10-14 13:43:00,
2013-10-14 09:48:00,69.6,58.2,30.00,NE,39,0.0,2.2,67,0.00,,---,0.00,VWS V14.01,2013-10-14 13:48:00,
2013-10-14 09:53:00,70.0,58.5,30.00,NE,48,3.1,3.1,67,0.00,,---,0.00,VWS V14.01,2013-10-14 13:53:00,
2013-10-14 09:58:00,70.5,59.0,30.00,NNE,22,2.7,6.3,67,0.00,,---,0.00,VWS V14.01,2013-10-14 13:58:00,
2013-10-14 10:03:00,71.1,59.6,30.00,NNE,32,5.8,5.8,67,0.00,,---,0.00,VWS V14.01,2013-10-14 14:03:00,
2013-10-14 10:08:00,71.6,59.7,30.00,NNE,14,5.8,5.8,66,0.00,,---,0.00,VWS V14.01,2013-10-14 14:08:00,
2013-10-14 10:13:00,71.8,59.4,30.00,North,0,2.7,4.0,65,0.00,,---,0.00,VWS V14.01,2013-10-14 14:13:00,
2013-10-14 10:18:00,72.1,59.3,30.00,WNW,284,2.2,3.1,64,0.00,,---,0.00,VWS V14.01,2013-10-14 14:18:00,
2013-10-14 10:23:00,72.5,59.2,30.00,SW,221,0.0,0.0,63,0.00,,---,0.00,VWS V14.01,2013-10-14 14:23:00,
2013-10-14 10:28:00,72.7,59.4,30.00,SSW,197,0.0,0.0,63,0.00,,---,0.00,VWS V14.01,2013-10-14 14:28:00,
2013-10-14 10:33:00,73.2,59.4,30.00,SSW,202,2.7,3.1,62,0.00,,---,0.00,VWS V14.01,2013-10-14 14:33:00,
2013-10-14 10:38:00,73.4,59.6,30.00,NE,55,2.7,3.1,62,0.00,,---,0.00,VWS V14.01,2013-10-14 14:38:00,
2013-10-14 10:43:00,73.8,59.5,30.00,North,4,3.1,3.1,61,0.00,,---,0.00,VWS V14.01,2013-10-14 14:43:00,
2013-10-14 10:48:00,73.9,59.7,30.00,North,4,4.9,5.8,61,0.00,,---,0.00,VWS V14.01,2013-10-14 14:48:00,
2013-10-14 10:53:00,74.1,59.4,30.00,NNE,24,6.3,6.3,60,0.00,,---,0.00,VWS V14.01,2013-10-14 14:53:00,
2013-10-14 10:58:00,74.3,59.5,30.00,NNE,12,2.7,4.0,60,0.00,,---,0.00,VWS V14.01,2013-10-14 14:58:00,
2013-10-14 11:03:00,74.5,59.2,30.00,East,82,2.2,5.8,59,0.00,,---,0.00,VWS V14.01,2013-10-14 15:03:00,
2013-10-14 11:08:00,74.7,59.4,30.00,ENE,57,2.7,4.0,59,0.00,,---,0.00,VWS V14.01,2013-10-14 15:08:00,
2013-10-14 11:13:00,75.2,59.4,30.00,ENE,70,4.0,4.0,58,0.00,,---,0.00,VWS V14.01,2013-10-14 15:13:00,
2013-10-14 11:18:00,75.6,58.3,30.00,ESE,114,2.7,3.6,55,0.00,,---,0.00,VWS V14.01,2013-10-14 15:18:00,
2013-10-14 11:23:00,75.7,58.4,30.00,WNW,282,2.7,5.4,55,0.00,,---,0.00,VWS V14.01,2013-10-14 15:23:00,
2013-10-14 11:28:00,76.1,58.8,30.00,NW,315,2.2,5.8,55,0.00,,---,0.00,VWS V14.01,2013-10-14 15:28:00,
2013-10-14 11:33:00,76.1,58.3,30.00,NW,307,3.1,5.4,54,0.00,,---,0.00,VWS V14.01,2013-10-14 15:33:00,
2013-10-14 11:38:00,76.6,58.8,30.00,North,353,2.2,3.1,54,0.00,,---,0.00,VWS V14.01,2013-10-14 15:38:00,
2013-10-14 11:43:00,77.0,58.0,30.00,NNW,332,5.4,8.1,52,0.00,,---,0.00,VWS V14.01,2013-10-14 15:43:00,
2013-10-14 11:48:00,77.2,58.2,30.00,North,353,5.8,5.8,52,0.00,,---,0.00,VWS V14.01,2013-10-14 15:48:00,
2013-10-14 11:53:00,77.4,57.8,30.00,SE,126,0.0,2.2,51,0.00,,---,0.00,VWS V14.01,2013-10-14 15:53:00,
2013-10-14 11:58:00,77.7,58.7,30.00,SSE,168,3.1,3.1,52,0.00,,---,0.00,VWS V14.01,2013-10-14 15:58:00,
2013-10-14 12:03:00,78.1,58.5,30.00,ENE,63,2.2,3.6,51,0.00,,---,0.00,VWS V14.01,2013-10-14 16:03:00,
2013-10-14 12:08:00,78.6,58.4,30.00,North,8,3.6,6.3,50,0.00,,---,0.00,VWS V14.01,2013-10-14 16:08:00,
2013-10-14 12:13:00,78.8,58.6,30.00,East,85,2.7,2.7,50,0.00,,---,0.00,VWS V14.01,2013-10-14 16:13:00,
2013-10-14 12:18:00,78.6,58.4,30.00,South,190,0.0,0.0,50,0.00,,---,0.00,VWS V14.01,2013-10-14 16:18:00,
2013-10-14 12:23:00,78.3,58.1,30.00,North,357,5.8,5.8,50,0.00,,---,0.00,VWS V14.01,2013-10-14 16:23:00,
2013-10-14 12:28:00,77.9,57.2,30.00,ENE,69,3.6,6.3,49,0.00,,---,0.00,VWS V14.01,2013-10-14 16:28:00,
2013-10-14 12:33:00,77.7,56.5,30.00,North,357,5.8,6.3,48,0.00,,---,0.00,VWS V14.01,2013-10-14 16:33:00,
2013-10-14 12:38:00,77.4,56.7,30.00,North,357,3.1,3.1,49,0.00,,---,0.00,VWS V14.01,2013-10-14 16:38:00,
2013-10-14 12:43:00,77.4,57.3,30.00,North,0,0.0,0.0,50,0.00,,---,0.00,VWS V14.01,2013-10-14 16:43:00,
2013-10-14 12:48:00,77.7,57.6,30.00,ENE,78,0.0,3.6,50,0.00,,---,0.00,VWS V14.01,2013-10-14 16:48:00,
2013-10-14 12:53:00,78.1,58.0,30.00,East,84,3.6,3.6,50,0.00,,---,0.00,VWS V14.01,2013-10-14 16:53:00,
2013-10-14 12:58:00,78.4,57.7,30.00,East,98,4.9,4.9,49,0.00,,---,0.00,VWS V14.01,2013-10-14 16:58:00,
2013-10-14 13:03:00,78.3,56.4,30.00,NE,49,2.2,2.7,47,0.00,,---,0.00,VWS V14.01,2013-10-14 17:03:00,
2013-10-14 13:08:00,77.9,56.1,30.00,ENE,69,3.1,4.0,47,0.00,,---,0.00,VWS V14.01,2013-10-14 17:08:00,
2013-10-14 13:13:00,78.1,56.2,30.00,NNW,343,0.0,2.7,47,0.00,,---,0.00,VWS V14.01,2013-10-14 17:13:00,
2013-10-14 13:18:00,78.4,56.0,30.00,NE,43,3.1,5.4,46,0.00,,---,0.00,VWS V14.01,2013-10-14 17:18:00,
2013-10-14 13:23:00,78.4,56.0,30.00,NNW,332,4.9,5.8,46,0.00,,---,0.00,VWS V14.01,2013-10-14 17:23:00,
2013-10-14 13:28:00,78.3,55.2,30.00,NNW,341,0.0,3.1,45,0.00,,---,0.00,VWS V14.01,2013-10-14 17:28:00,
2013-10-14 13:34:00,77.7,54.7,29.97,East,81,3.6,3.6,45,0.00,,---,0.00,VWS V14.01,2013-10-14 17:34:00,
2013-10-14 13:39:00,77.9,55.5,29.97,NNE,30,3.6,3.6,46,0.00,,---,0.00,VWS V14.01,2013-10-14 17:39:00,
2013-10-14 13:44:00,78.1,55.0,29.97,East,84,2.2,3.6,45,0.00,,---,0.00,VWS V14.01,2013-10-14 17:44:00,
2013-10-14 13:49:00,77.9,54.3,30.00,ENE,60,3.1,3.1,44,0.00,,---,0.00,VWS V14.01,2013-10-14 17:49:00,
2013-10-14 13:54:00,78.3,55.8,30.00,North,353,2.7,2.7,46,0.00,,---,0.00,VWS V14.01,2013-10-14 17:54:00,
2013-10-14 13:59:00,78.3,55.2,30.00,SE,129,3.1,5.8,45,0.00,,---,0.00,VWS V14.01,2013-10-14 17:59:00,
2013-10-14 14:04:00,78.1,55.0,29.97,ESE,107,2.2,3.6,45,0.00,,---,0.00,VWS V14.01,2013-10-14 18:04:00,
2013-10-14 14:09:00,77.9,54.9,29.97,ENE,65,4.0,4.0,45,0.00,,---,0.00,VWS V14.01,2013-10-14 18:09:00,
2013-10-14 14:14:00,77.7,54.7,29.97,North,357,2.2,4.0,45,0.00,,---,0.00,VWS V14.01,2013-10-14 18:14:00,
2013-10-14 14:19:00,77.5,54.5,29.97,NE,50,2.7,3.6,45,0.00,,---,0.00,VWS V14.01,2013-10-14 18:19:00,
2013-10-14 14:24:00,77.4,54.4,29.97,ENE,61,3.1,3.1,45,0.00,,---,0.00,VWS V14.01,2013-10-14 18:24:00,
2013-10-14 14:29:00,76.6,53.7,29.97,NE,34,2.7,2.7,45,0.00,,---,0.00,VWS V14.01,2013-10-14 18:29:00,
2013-10-14 14:34:00,76.3,54.0,29.97,NE,42,0.0,0.0,46,0.00,,---,0.00,VWS V14.01,2013-10-14 18:34:00,
2013-10-14 14:39:00,75.9,53.7,29.97,ENE,67,0.0,0.0,46,0.00,,---,0.00,VWS V14.01,2013-10-14 18:39:00,
2013-10-14 14:44:00,75.9,54.3,29.97,SW,214,0.0,0.0,47,0.00,,---,0.00,VWS V14.01,2013-10-14 18:44:00,
2013-10-14 14:49:00,75.7,54.1,29.97,NNE,28,0.0,0.0,47,0.00,,---,0.00,VWS V14.01,2013-10-14 18:49:00,
2013-10-14 14:54:00,75.7,54.1,29.97,East,84,0.0,2.2,47,0.00,,---,0.00,VWS V14.01,2013-10-14 18:54:00,
2013-10-14 14:59:00,75.6,54.5,29.97,ESE,103,0.0,0.0,48,0.00,,---,0.00,VWS V14.01,2013-10-14 18:59:00,
2013-10-14 15:04:00,75.6,54.5,29.97,ENE,62,7.6,7.6,48,0.00,,---,0.00,VWS V14.01,2013-10-14 19:04:00,
2013-10-14 15:09:00,75.2,54.2,29.97,NE,42,0.0,3.1,48,0.00,,---,0.00,VWS V14.01,2013-10-14 19:09:00,
2013-10-14 15:14:00,74.7,54.8,29.97,NE,56,0.0,5.4,50,0.00,,---,0.00,VWS V14.01,2013-10-14 19:14:00,
2013-10-14 15:19:00,74.1,54.3,29.97,SW,226,0.0,2.2,50,0.00,,---,0.00,VWS V14.01,2013-10-14 19:19:00,
2013-10-14 15:24:00,73.8,54.0,29.97,ESE,110,0.0,0.0,50,0.00,,---,0.00,VWS V14.01,2013-10-14 19:24:00,
2013-10-14 15:29:00,73.6,54.4,29.97,East,82,0.0,0.0,51,0.00,,---,0.00,VWS V14.01,2013-10-14 19:29:00,
2013-10-14 15:34:00,73.4,54.2,29.97,ENE,63,0.0,0.0,51,0.00,,---,0.00,VWS V14.01,2013-10-14 19:34:00,
2013-10-14 15:39:00,73.2,54.0,29.97,NE,42,0.0,0.0,51,0.00,,---,0.00,VWS V14.01,2013-10-14 19:39:00,
2013-10-14 15:44:00,73.0,54.4,29.97,NE,54,0.0,0.0,52,0.00,,---,0.00,VWS V14.01,2013-10-14 19:44:00,
2013-10-14 15:49:00,73.0,54.4,29.97,NE,56,0.0,0.0,52,0.00,,---,0.00,VWS V14.01,2013-10-14 19:49:00,
2013-10-14 15:54:00,73.0,54.4,29.97,NE,56,0.0,0.0,52,0.00,,---,0.00,VWS V14.01,2013-10-14 19:54:00,
2013-10-14 15:59:00,73.0,54.4,29.97,NE,42,0.0,0.0,52,0.00,,---,0.00,VWS V14.01,2013-10-14 19:59:00,
2013-10-14 16:04:00,73.2,54.6,29.97,NE,42,0.0,0.0,52,0.00,,---,0.00,VWS V14.01,2013-10-14 20:04:00,
2013-10-14 16:09:00,73.6,54.9,29.97,NE,42,0.0,0.0,52,0.00,,---,0.00,VWS V14.01,2013-10-14 20:09:00,
2013-10-14 16:14:00,73.9,55.2,29.97,South,177,0.0,0.0,52,0.00,,---,0.00,VWS V14.01,2013-10-14 20:14:00,
2013-10-14 16:19:00,74.5,56.2,29.97,WNW,298,3.1,3.1,53,0.00,,---,0.00,VWS V14.01,2013-10-14 20:19:00,
2013-10-14 16:24:00,75.0,56.8,29.97,ENE,61,2.7,4.0,53,0.00,,---,0.00,VWS V14.01,2013-10-14 20:24:00,
2013-10-14 16:29:00,75.2,56.4,29.97,NE,41,0.0,0.0,52,0.00,,---,0.00,VWS V14.01,2013-10-14 20:29:00,
2013-10-14 16:34:00,75.4,56.5,29.97,NNE,32,0.0,0.0,52,0.00,,---,0.00,VWS V14.01,2013-10-14 20:34:00,
2013-10-14 16:39:00,75.2,56.4,29.97,SE,143,0.0,0.0,52,0.00,,---,0.00,VWS V14.01,2013-10-14 20:39:00,
2013-10-14 16:44:00,75.2,56.4,29.97,SSE,160,0.0,0.0,52,0.00,,---,0.00,VWS V14.01,2013-10-14 20:44:00,
2013-10-14 16:49:00,75.4,56.5,29.97,NNW,329,0.0,0.0,52,0.00,,---,0.00,VWS V14.01,2013-10-14 20:49:00,
2013-10-14 16:54:00,75.6,56.7,29.97,NNE,22,0.0,0.0,52,0.00,,---,0.00,VWS V14.01,2013-10-14 20:54:00,
2013-10-14 16:59:00,75.9,56.5,29.97,NNW,341,3.6,3.6,51,0.00,,---,0.00,VWS V14.01,2013-10-14 20:59:00,
2013-10-14 17:02:00,75.9,56.5,29.97,North,357,0.0,0.0,51,0.00,,---,0.00,VWS V14.01,2013-10-14 21:02:00,
2013-10-14 17:07:00,75.9,56.5,29.97,South,181,2.2,2.2,51,0.00,,---,0.00,VWS V14.01,2013-10-14 21:07:00,
2013-10-14 17:12:00,75.9,56.5,29.97,East,88,2.2,2.2,51,0.00,,---,0.00,VWS V14.01,2013-10-14 21:12:00,
2013-10-14 17:17:00,75.9,56.5,29.94,NE,39,3.1,3.1,51,0.00,,---,0.00,VWS V14.01,2013-10-14 21:17:00,
2013-10-14 17:22:00,75.7,56.3,29.94,NE,45,0.0,0.0,51,0.00,,---,0.00,VWS V14.01,2013-10-14 21:22:00,
2013-10-14 17:27:00,75.6,56.2,29.94,NNE,30,2.7,2.7,51,0.00,,---,0.00,VWS V14.01,2013-10-14 21:27:00,
2013-10-14 17:32:00,75.4,55.5,29.97,ESE,111,0.0,0.0,50,0.00,,---,0.00,VWS V14.01,2013-10-14 21:32:00,
2013-10-14 17:37:00,75.4,55.5,29.97,North,7,2.2,2.7,50,0.00,,---,0.00,VWS V14.01,2013-10-14 21:37:00,
2013-10-14 17:42:00,75.6,55.6,29.97,NNE,17,0.0,0.0,50,0.00,,---,0.00,VWS V14.01,2013-10-14 21:42:00,
2013-10-14 17:47:00,75.6,55.6,29.97,NNE,24,0.0,0.0,50,0.00,,---,0.00,VWS V14.01,2013-10-14 21:47:00,
2013-10-14 17:52:00,75.4,54.9,29.97,East,84,0.0,0.0,49,0.00,,---,0.00,VWS V14.01,2013-10-14 21:52:00,
2013-10-14 17:57:00,75.2,55.3,29.97,NNE,17,0.0,0.0,50,0.00,,---,0.00,VWS V14.01,2013-10-14 21:57:00,
2013-10-14 18:02:00,75.0,55.1,29.97,North,11,0.0,0.0,50,0.00,,---,0.00,VWS V14.01,2013-10-14 22:02:00,
2013-10-14 18:07:00,75.0,55.1,29.97,NNE,28,0.0,0.0,50,0.00,,---,0.00,VWS V14.01,2013-10-14 22:07:00,
2013-10-14 18:12:00,74.8,55.0,29.97,North,10,0.0,0.0,50,0.00,,---,0.00,VWS V14.01,2013-10-14 22:12:00,
2013-10-14 18:17:00,74.8,55.0,29.97,West,267,0.0,0.0,50,0.00,,---,0.00,VWS V14.01,2013-10-14 22:17:00,
2013-10-14 18:22:00,74.7,54.8,29.97,WSW,245,2.7,2.7,50,0.00,,---,0.00,VWS V14.01,2013-10-14 22:22:00,
2013-10-14 18:27:00,74.5,54.6,29.97,ENE,71,0.0,0.0,50,0.00,,---,0.00,VWS V14.01,2013-10-14 22:27:00,
2013-10-14 18:32:00,74.3,54.5,29.97,ENE,71,0.0,0.0,50,0.00,,---,0.00,VWS V14.01,2013-10-14 22:32:00,
2013-10-14 18:37:00,74.3,54.5,29.97,ENE,75,0.0,2.2,50,0.00,,---,0.00,VWS V14.01,2013-10-14 22:37:00,
2013-10-14 18:42:00,74.1,54.3,29.97,North,11,0.0,0.0,50,0.00,,---,0.00,VWS V14.01,2013-10-14 22:42:00,
2013-10-14 18:47:00,73.9,54.2,29.97,ENE,76,0.0,0.0,50,0.00,,---,0.00,VWS V14.01,2013-10-14 22:47:00,
2013-10-14 18:52:00,73.8,54.0,29.97,North,353,2.2,3.6,50,0.00,,---,0.00,VWS V14.01,2013-10-14 22:52:00,
2013-10-14 18:57:00,73.4,53.7,29.97,North,3,0.0,0.0,50,0.00,,---,0.00,VWS V14.01,2013-10-14 22:57:00,
2013-10-14 19:02:00,73.0,53.9,30.00,North,11,0.0,0.0,51,0.00,,---,0.00,VWS V14.01,2013-10-14 23:02:00,
2013-10-14 19:07:00,72.5,53.4,30.00,North,11,0.0,0.0,51,0.00,,---,0.00,VWS V14.01,2013-10-14 23:07:00,
2013-10-14 19:12:00,72.1,53.0,30.00,North,11,0.0,0.0,51,0.00,,---,0.00,VWS V14.01,2013-10-14 23:12:00,
2013-10-14 19:17:00,71.8,52.7,30.00,North,0,0.0,0.0,51,0.00,,---,0.00,VWS V14.01,2013-10-14 23:17:00,
2013-10-14 19:22:00,71.2,52.2,30.00,North,0,0.0,0.0,51,0.00,,---,0.00,VWS V14.01,2013-10-14 23:22:00,
2013-10-14 19:27:00,70.9,52.4,30.00,North,0,0.0,0.0,52,0.00,,---,0.00,VWS V14.01,2013-10-14 23:27:00,
2013-10-14 19:32:00,70.5,52.1,30.00,North,0,0.0,0.0,52,0.00,,---,0.00,VWS V14.01,2013-10-14 23:32:00,
2013-10-14 19:37:00,70.2,51.7,30.00,North,0,0.0,0.0,52,0.00,,---,0.00,VWS V14.01,2013-10-14 23:37:00,
2013-10-14 19:42:00,70.0,51.6,30.00,North,0,0.0,0.0,52,0.00,,---,0.00,VWS V14.01,2013-10-14 23:42:00,
2013-10-14 19:47:00,69.6,51.2,30.00,North,0,0.0,0.0,52,0.00,,---,0.00,VWS V14.01,2013-10-14 23:47:00,
2013-10-14 19:52:00,69.4,51.1,30.00,North,0,0.0,0.0,52,0.00,,---,0.00,VWS V14.01,2013-10-14 23:52:00,
2013-10-14 19:57:00,69.3,51.4,30.00,North,0,0.0,0.0,53,0.00,,---,0.00,VWS V14.01,2013-10-14 23:57:00,
2013-10-14 20:02:00,69.1,51.2,30.00,North,357,0.0,0.0,53,0.00,,---,0.00,VWS V14.01,2013-10-15 00:02:00,
2013-10-14 20:08:00,68.9,51.1,30.00,NNW,341,0.0,0.0,53,0.00,,---,0.00,VWS V14.01,2013-10-15 00:08:00,
2013-10-14 20:13:00,68.7,50.9,30.00,NNE,23,0.0,0.0,53,0.00,,---,0.00,VWS V14.01,2013-10-15 00:13:00,
2013-10-14 20:18:00,68.7,50.9,30.00,WSW,255,0.0,0.0,53,0.00,,---,0.00,VWS V14.01,2013-10-15 00:18:00,
2013-10-14 20:23:00,68.7,51.4,30.00,NNW,342,0.0,0.0,54,0.00,,---,0.00,VWS V14.01,2013-10-15 00:23:00,
2013-10-14 20:28:00,68.9,51.6,30.00,SE,140,0.0,0.0,54,0.00,,---,0.00,VWS V14.01,2013-10-15 00:28:00,
2013-10-14 20:33:00,69.1,51.8,30.00,SSE,150,0.0,0.0,54,0.00,,---,0.00,VWS V14.01,2013-10-15 00:33:00,
2013-10-14 20:38:00,69.1,51.8,30.00,NE,47,0.0,0.0,54,0.00,,---,0.00,VWS V14.01,2013-10-15 00:38:00,
2013-10-14 20:43:00,69.3,51.9,30.00,ENE,62,0.0,0.0,54,0.00,,---,0.00,VWS V14.01,2013-10-15 00:43:00,
2013-10-14 20:48:00,69.4,52.1,30.00,NNW,335,0.0,0.0,54,0.00,,---,0.00,VWS V14.01,2013-10-15 00:48:00,
2013-10-14 20:53:00,69.6,52.8,30.00,NNW,330,0.0,0.0,55,0.00,,---,0.00,VWS V14.01,2013-10-15 00:53:00,
2013-10-14 20:58:00,69.6,52.8,30.00,North,357,0.0,0.0,55,0.00,,---,0.00,VWS V14.01,2013-10-15 00:58:00,
2013-10-14 21:03:00,69.8,52.4,30.00,NE,49,0.0,0.0,54,0.00,,---,0.00,VWS V14.01,2013-10-15 01:03:00,
2013-10-14 21:08:00,69.8,52.9,30.00,North,349,0.0,0.0,55,0.00,,---,0.00,VWS V14.01,2013-10-15 01:08:00,
2013-10-14 21:13:00,70.0,53.1,30.00,North,349,0.0,0.0,55,0.00,,---,0.00,VWS V14.01,2013-10-15 01:13:00,
2013-10-14 21:18:00,70.0,53.1,30.00,ESE,108,0.0,0.0,55,0.00,,---,0.00,VWS V14.01,2013-10-15 01:18:00,
2013-10-14 21:23:00,70.0,53.1,30.00,East,82,2.2,2.2,55,0.00,,---,0.00,VWS V14.01,2013-10-15 01:23:00,
2013-10-14 21:28:00,70.0,53.1,30.00,NNE,19,0.0,0.0,55,0.00,,---,0.00,VWS V14.01,2013-10-15 01:28:00,
2013-10-14 21:33:00,70.0,53.1,30.00,North,10,0.0,0.0,55,0.00,,---,0.00,VWS V14.01,2013-10-15 01:33:00,
2013-10-14 21:38:00,70.2,53.3,30.00,NE,37,0.0,0.0,55,0.00,,---,0.00,VWS V14.01,2013-10-15 01:38:00,
2013-10-14 21:43:00,70.2,53.3,30.00,NE,34,0.0,0.0,55,0.00,,---,0.00,VWS V14.01,2013-10-15 01:43:00,
2013-10-14 21:48:00,70.2,53.3,30.00,NNE,32,4.0,4.0,55,0.00,,---,0.00,VWS V14.01,2013-10-15 01:48:00,
2013-10-14 21:53:00,70.2,53.3,30.00,NNW,344,2.2,2.2,55,0.00,,---,0.00,VWS V14.01,2013-10-15 01:53:00,
2013-10-14 21:58:00,70.2,53.3,30.00,NNE,33,0.0,4.0,55,0.00,,---,0.00,VWS V14.01,2013-10-15 01:58:00,
2013-10-14 22:03:00,70.2,53.3,30.00,NNE,22,0.0,2.7,55,0.00,,---,0.00,VWS V14.01,2013-10-15 02:03:00,
2013-10-14 22:08:00,70.0,53.1,30.00,NNE,16,0.0,0.0,55,0.00,,---,0.00,VWS V14.01,2013-10-15 02:08:00,
2013-10-14 22:13:00,70.0,53.1,30.00,North,1,0.0,0.0,55,0.00,,---,0.00,VWS V14.01,2013-10-15 02:13:00,
2013-10-14 22:18:00,70.0,53.1,30.00,SE,125,0.0,0.0,55,0.00,,---,0.00,VWS V14.01,2013-10-15 02:18:00,
2013-10-14 22:23:00,69.8,52.9,30.00,NE,42,3.1,3.1,55,0.00,,---,0.00,VWS V14.01,2013-10-15 02:23:00,
2013-10-14 22:28:00,69.6,53.2,30.00,North,4,0.0,0.0,56,0.00,,---,0.00,VWS V14.01,2013-10-15 02:28:00,
2013-10-14 22:33:00,69.6,53.2,30.00,NNE,27,0.0,0.0,56,0.00,,---,0.00,VWS V14.01,2013-10-15 02:33:00,
2013-10-14 22:38:00,69.4,53.1,30.00,NNE,18,0.0,0.0,56,0.00,,---,0.00,VWS V14.01,2013-10-15 02:38:00,
2013-10-14 22:43:00,69.3,52.9,30.00,NE,49,0.0,0.0,56,0.00,,---,0.00,VWS V14.01,2013-10-15 02:43:00,
2013-10-14 22:48:00,69.3,52.9,30.00,ENE,70,2.2,2.7,56,0.00,,---,0.00,VWS V14.01,2013-10-15 02:48:00,
2013-10-14 22:53:00,69.1,52.7,30.00,NW,323,2.2,2.7,56,0.00,,---,0.00,VWS V14.01,2013-10-15 02:53:00,
2013-10-14 22:58:00,69.1,52.7,30.00,NNW,337,2.2,3.1,56,0.00,,---,0.00,VWS V14.01,2013-10-15 02:58:00,
2013-10-14 23:03:00,68.9,52.6,30.00,North,353,0.0,0.0,56,0.00,,---,0.00,VWS V14.01,2013-10-15 03:03:00,
2013-10-14 23:08:00,68.9,52.6,30.00,NNW,330,2.7,3.6,56,0.00,,---,0.00,VWS V14.01,2013-10-15 03:08:00,
2013-10-14 23:13:00,68.7,52.9,30.00,NNE,18,0.0,0.0,57,0.00,,---,0.00,VWS V14.01,2013-10-15 03:13:00,
2013-10-14 23:18:00,68.7,52.9,30.00,WSW,252,0.0,0.0,57,0.00,,---,0.00,VWS V14.01,2013-10-15 03:18:00,
2013-10-14 23:23:00,68.5,52.7,30.00,NNE,18,0.0,0.0,57,0.00,,---,0.00,VWS V14.01,2013-10-15 03:23:00,
2013-10-14 23:28:00,68.7,52.9,30.00,WSW,258,2.2,3.1,57,0.00,,---,0.00,VWS V14.01,2013-10-15 03:28:00,
2013-10-14 23:33:00,68.7,53.4,30.00,East,93,0.0,2.7,58,0.00,,---,0.00,VWS V14.01,2013-10-15 03:33:00,
2013-10-14 23:38:00,68.9,53.5,30.00,West,281,0.0,2.7,58,0.00,,---,0.00,VWS V14.01,2013-10-15 03:38:00,
2013-10-14 23:43:00,68.9,53.5,30.00,West,276,0.0,0.0,58,0.00,,---,0.00,VWS V14.01,2013-10-15 03:43:00,
2013-10-14 23:48:00,68.9,53.5,30.00,SSW,207,0.0,0.0,58,0.00,,---,0.00,VWS V14.01,2013-10-15 03:48:00,
2013-10-14 23:53:00,69.1,53.7,30.00,NE,36,3.6,3.6,58,0.00,,---,0.00,VWS V14.01,2013-10-15 03:53:00,
2013-10-14 23:58:00,69.1,53.7,30.00,NW,311,2.2,2.2,58,0.00,,---,0.00,VWS V14.01,2013-10-15 03:58:00,